Temp
4 5 6 7 6 6 7 7 7 8 7 7 7 7 8 8 8 8 8 7 6 6 5 5 5 5 4 4 3 3 3 3 3 3 3 3 3 2 2 2 2 2 2 2
5 5 6 6 5 6 6 6 7 7 7 7 7 8 7 8 8 7 7 6 6 5 5 4 4 4 4 3 3 3 3 3 3 2 2 2 2 2 2 2 2 2 2 2
5 6 5 6 5 6 6 6 6 6 6 6 6 7 8 8 8 8 7 6 6 5 4 4 4 3 3 3 2 2 2 2 2 2 2 1 1 1 1 1 1 1 1 1
4 5 6 6 5 6 6 6 5 6 5 5 5 5 8 9 8 8 8 7 6 5 4 4 3 3 3 2 2 2 2 1 1 1 1 0 0 0 0 0 0 0 0 0
5 5 5 5 6 5 5 5 5 5 5 4 5 5 8 8 9 9 8 7 5 4 4 3 2 2 2 2 2 1 1 1 1 0 0 -0 -0 -0 -0 -1 -1 -1 -1 -1
4 4 4 5 5 4 4 4 4 4 4 0 5 5 7 8 8 8 7 6 5 4 3 3 3 2 2 1 1 1 1 0 0 0 -0 -1 -1 -1 -1 -1 -1 -1 -2 -2
3 3 3 3 3 3 3 3 2 -0 -3 -2 3 2 7 8 8 8 7 5 4 4 3 2 2 1 1 1 1 1 0 0 0 -0 -1 -1 -1 -1 -2 -2 -2 -2 -3 -3
3 2 3 3 3 4 3 4 5 -1 -3 -3 1 2 7 7 7 7 6 5 4 3 3 2 2 1 1 1 1 0 0 -0 -0 -1 -1 -2 -2 -2 -2 -2 -2 -3 -3 -3
4 4 3 3 3 3 2 3 4 3 -0 -1 3 4 6 6 6 6 5 4 4 3 2 2 1 1 1 0 0 -0 -1 -1 -1 -2 -2 -2 -3 -3 -3 -3 -4 -4 -4 -4
4 4 2 2 2 2 3 3 2 3 -3 -0 -0 2 6 6 5 5 4 4 3 3 2 2 1 0 0 -0 -1 -1 -1 -2 -2 -3 -3 -3 -3 -4 -4 -4 -4 -4 -4 -4
4 4 1 1 1 3 2 1 3 3 2 -3 -5 2 5 5 5 4 4 3 2 2 1 1 0 0 -1 -1 -1 -2 -2 -3 -3 -3 -4 -4 -5 -5 -5 -5 -5 -5 -5 -5
3 4 3 1 2 2 1 2 3 4 0 1 -0 2 5 5 5 5 4 3 2 1 1 0 -0 -1 -1 -2 -2 -3 -3 -4 -4 -4 -5 -5 -5 -5 -6 -6 -6 -5 -6 -6
4 3 1 -1 0 1 2 2 3 3 2 1 -0 3 4 4 3 3 3 2 2 1 0 -0 -1 -1 -2 -3 -3 -4 -4 -5 -5 -5 -6 -6 -6 -6 -5 -5 -6 -6 -7 -7
3 3 4 3 5 5 2 4 3 2 1 2 2 4 3 3 3 2 1 1 1 0 -0 -1 -2 -2 -3 -4 -4 -4 -5 -6 -6 -6 -6 -6 -6 -6 -6 -7 -7 -8 -8 -9
2 2 3 4 4 4 4 4 3 2 3 2 3 3 3 2 1 0 -0 -1 -1 -1 -1 -2 -3 -3 -4 -4 -5 -6 -6 -6 -6 -6 -6 -7 -7 -7 -7 -8 -8 -9 -9 -10
2 2 3 2 2 2 2 2 2 2 2 2 2 2 2 1 0 -0 -1 -1 -2 -2 -3 -3 -4 -4 -5 -6 -6 -6 -6 -7 -7 -7 -7 -7 -7 -8 -8 -9 -10 -11 -11 -12
1 1 2 1 1 1 -1 2 2 3 2 2 2 2 1 0 -0 -1 -2 -3 -3 -3 -4 -4 -5 -6 -6 -7 -7 -7 -7 -7 -7 -7 -7 -8 -9 -9 -10 -11 -11 -11 -11 -12
1 1 0 1 -1 -5 1 1 2 2 2 1 1 1 0 -1 -2 -3 -3 -4 -5 -5 -5 -6 -6 -7 -7 -7 -7 -7 -7 -7 -8 -8 -9 -9 -10 -11 -11 -11 -11 -11 -12 -12
0 0 -1 -1 -2 -0 -2 -0 1 1 1 1 1 1 -0 -1 -2 -3 -4 -5 -5 -6 -6 -7 -7 -7 -7 -7 -7 -8 -8 -8 -8 -9 -9 -10 -11 -11 -11 -11 -11 -12 -12 -11
-1 -1 -1 -3 -2 -4 -1 0 0 -0 -0 0 0 -0 -1 -2 -3 -4 -5 -6 -6 -6 -6 -7 -7 -7 -7 -8 -8 -8 -8 -9 -9 -10 -10 -11 -11 -11 -11 -12 -12 -12 -12 -12
-2 -2 -2 -2 -2 -2 -2 -2 -1 -2 -0 -1 -1 -2 -3 -4 -5 -6 -6 -6 -6 -7 -7 -7 -7 -8 -8 -9 -9 -9 -9 -10 -10 -11 -11 -11 -11 -12 -12 -12 -12 -12 -12 -12
-1 -3 -3 -4 -4 -4 -3 -3 -2 -2 -2 -3 -3 -4 -4 -5 -6 -6 -7 -7 -7 -7 -8 -8 -9 -9 -9 -9 -9 -10 -10 -11 -11 -11 -11 -11 -11 -12 -12 -12 -12 -13 -13 -13
-3 -2 -2 -3 -3 -3 -4 -3 -4 -3 -4 -5 -5 -6 -6 -6 -7 -7 -7 -8 -8 -9 -9 -9 -9 -9 -10 -10 -11 -11 -11 -12 -11 -11 -11 -12 -12 -12 -12 -12 -12 -13 -13 -14
-4 -4 -4 -5 -5 -5 -5 -5 -5 -6 -6 -7 -8 -8 -8 -8 -8 -8 -9 -9 -9 -10 -10 -10 -10 -10 -10 -11 -12 -12 -12 -12 -12 -12 -12 -12 -12 -12 -12 -13 -13 -13 -14 -14
-5 -6 -6 -6 -5 -6 -6 -7 -7 -7 -8 -9 -9 -9 -9 -9 -9 -10 -10 -10 -10 -10 -10 -10 -10 -11 -12 -12 -12 -12 -12 -12 -12 -12 -12 -12 -12 -12 -12 -13 -13 -13 -14 -15
-6 -7 -6 -6 -6 -6 -7 -7 -8 -9 -10 -11 -11 -10 -10 -10 -10 -11 -11 -11 -11 -11 -11 -11 -12 -12 -12 -12 -12 -12 -13 -13 -12 -12 -12 -12 -13 -13 -13 -13 -12 -13 -14 -15
Height
3097 3100 3099 3105 3114 3117 3119 3121 3121 3123 3124 3125 3126 3127 3128 3128 3129 3130 3132 3134 3135 3136 3136 3137 3137 3138 3139 3141 3142 3143 3144 3145 3145 3144 3144 3144 3143 3142 3141 3140 3138 3137 3134 3131
3098 3098 3105 3109 3110 3114 3116 3118 3120 3121 3122 3123 3122 3123 3123 3123 3125 3127 3128 3129 3131 3131 3132 3133 3133 3134 3135 3137 3138 3140 3141 3142 3142 3142 3142 3141 3140 3139 3138 3136 3135 3132 3130 3127
3097 3100 3102 3104 3109 3111 3112 3115 3118 3120 3119 3119 3119 3118 3117 3118 3119 3120 3122 3124 3125 3126 3128 3129 3129 3130 3131 3133 3135 3136 3138 3138 3139 3139 3138 3137 3136 3135 3134 3131 3129 3127 3125 3122
3097 3097 3099 3102 3106 3107 3109 3112 3115 3115 3117 3117 3117 3114 3112 3112 3113 3114 3116 3118 3120 3122 3123 3124 3125 3127 3128 3130 3132 3133 3134 3135 3135 3134 3134 3133 3132 3131 3129 3128 3125 3122 3119 3116
3093 3094 3097 3099 3100 3104 3107 3109 3110 3112 3113 3114 3114 3115 3105 3107 3108 3109 3110 3113 3115 3118 3119 3120 3121 3123 3125 3127 3128 3130 3130 3131 3130 3130 3129 3128 3127 3126 3123 3122 3119 3116 3113 3110
3088 3090 3092 3094 3097 3101 3103 3106 3109 3110 3111 3111 3108 3109 3101 3101 3103 3103 3105 3108 3111 3113 3114 3116 3118 3120 3122 3124 3125 3126 3126 3126 3126 3125 3124 3123 3121 3119 3117 3115 3113 3110 3107 3104
3084 3087 3088 3091 3095 3097 3099 3103 3106 3111 3113 3106 3102 3103 3096 3098 3099 3100 3102 3104 3107 3109 3111 3113 3115 3117 3118 3120 3121 3121 3121 3121 3121 3120 3119 3118 3116 3114 3112 3109 3106 3103 3100 3098
3077 3084 3083 3084 3087 3090 3094 3097 3095 3104 3106 3099 3100 3094 3090 3093 3096 3098 3099 3100 3103 3105 3107 3109 3110 3112 3114 3115 3116 3116 3116 3116 3116 3115 3114 3112 3109 3107 3104 3101 3098 3094 3091 3088
3072 3075 3076 3078 3082 3088 3088 3089 3093 3094 3097 3097 3092 3089 3090 3090 3092 3094 3096 3098 3100 3102 3104 3105 3107 3108 3109 3111 3111 3111 3112 3111 3110 3109 3106 3104 3101 3098 3095 3092 3088 3085 3082 3078
3067 3070 3071 3075 3079 3081 3081 3085 3090 3092 3098 3097 3088 3087 3084 3087 3088 3091 3093 3096 3097 3098 3100 3101 3103 3105 3105 3106 3106 3106 3106 3105 3103 3101 3099 3096 3093 3089 3085 3082 3079 3076 3072 3068
3062 3064 3068 3070 3070 3071 3076 3078 3082 3085 3086 3087 3092 3083 3083 3084 3086 3088 3090 3092 3094 3095 3097 3098 3100 3100 3101 3101 3101 3101 3100 3098 3096 3094 3091 3087 3084 3080 3076 3071 3066 3061 3056 3052
3056 3059 3062 3065 3066 3068 3070 3073 3076 3077 3080 3081 3082 3080 3081 3082 3083 3085 3087 3089 3090 3092 3093 3095 3096 3096 3097 3096 3096 3095 3093 3090 3087 3084 3081 3077 3074 3069 3064 3059 3054 3050 3045 3040
3049 3053 3058 3063 3066 3063 3063 3065 3069 3072 3073 3073 3078 3074 3075 3077 3080 3081 3083 3084 3086 3088 3089 3090 3091 3091 3090 3089 3088 3087 3084 3081 3078 3075 3072 3068 3064 3059 3054 3048 3043 3038 3031 3026
3043 3045 3046 3046 3047 3050 3053 3056 3060 3065 3066 3066 3063 3068 3071 3074 3076 3077 3078 3080 3081 3082 3083 3084 3084 3083 3083 3082 3081 3080 3077 3074 3071 3067 3063 3059 3054 3048 3042 3036 3031 3025 3019 3013
3038 3040 3042 3044 3046 3047 3048 3051 3053 3056 3059 3060 3061 3063 3068 3070 3071 3072 3073 3074 3075 3076 3077 3077 3077 3076 3076 3075 3074 3072 3070 3066 3061 3057 3053 3048 3041 3036 3030 3024 3017 3010 3004 2998
3032 3035 3037 3040 3041 3043 3045 3047 3050 3053 3054 3055 3056 3058 3061 3063 3064 3065 3066 3067 3068 3068 3068 3069 3069 3069 3069 3067 3066 3064 3060 3056 3052 3047 3041 3034 3028 3022 3016 3009 3003 2997 2992 2986
3027 3030 3033 3034 3036 3037 3037 3038 3042 3045 3046 3049 3049 3053 3056 3056 3058 3058 3059 3060 3061 3061 3062 3063 3063 3062 3061 3059 3057 3054 3049 3044 3038 3034 3028 3020 3013 3007 3002 2996 2990 2985 2980 2974
3021 3025 3029 3030 3032 3035 3027 3030 3034 3037 3039 3041 3043 3046 3048 3049 3050 3051 3052 3053 3055 3056 3057 3057 3056 3054 3053 3050 3046 3041 3036 3031 3026 3020 3013 3007 3002 2997 2991 2985 2980 2973 2966 2960
3014 3019 3023 3026 3026 3024 3023 3026 3029 3030 3034 3036 3038 3039 3040 3042 3043 3044 3046 3048 3049 3050 3050 3050 3048 3045 3043 3039 3035 3029 3025 3020 3015 3009 3004 2998 2993 2986 2980 2974 2967 2961 2953 2949
3007 3012 3016 3018 3020 3019 3016 3020 3023 3025 3025 3031 3032 3033 3035 3036 3037 3039 3040 3042 3043 3044 3043 3041 3039 3037 3033 3030 3024 3020 3015 3010 3005 2999 2994 2989 2983 2975 2969 2963 2957 2950 2943 2935
3000 3004 3007 3008 3011 3010 3011 3016 3020 3023 3024 3023 3025 3027 3029 3031 3034 3036 3037 3037 3037 3037 3036 3034 3030 3027 3024 3021 3016 3011 3006 3001 2995 2989 2983 2978 2973 2965 2958 2951 2945 2936 2929 2922
2992 2998 3001 3005 3008 3008 3008 3011 3016 3016 3014 3017 3019 3021 3024 3026 3029 3030 3031 3032 3031 3030 3029 3026 3022 3020 3017 3013 3006 3001 2996 2989 2983 2977 2972 2967 2961 2953 2946 2938 2932 2925 2917 2909
2991 2992 2995 3000 2999 3001 3003 3006 3007 3009 3010 3013 3016 3018 3020 3022 3024 3026 3026 3026 3025 3023 3021 3018 3014 3011 3008 3003 2997 2990 2985 2978 2973 2967 2961 2955 2948 2941 2935 2927 2920 2912 2905 2898
2983 2986 2989 2994 2992 2996 2998 3000 3001 3003 3005 3008 3011 3014 3016 3018 3019 3020 3020 3019 3018 3016 3012 3008 3005 3001 2997 2993 2987 2980 2974 2968 2962 2957 2951 2945 2937 2930 2924 2917 2910 2902 2895 2889
2977 2979 2981 2985 2986 2989 2991 2993 2996 2998 3001 3004 3007 3010 3012 3013 3013 3014 3013 3011 3009 3006 3003 2999 2995 2990 2986 2981 2975 2970 2964 2959 2952 2946 2939 2934 2928 2920 2914 2907 2901 2895 2889 2881
2969 2972 2974 2976 2980 2983 2987 2989 2992 2995 2997 3001 3004 3005 3006 3007 3007 3007 3006 3003 3000 2997 2993 2989 2985 2980 2975 2970 2964 2960 2954 2948 2942 2936 2931 2923 2917 2910 2905 2898 2892 2889 2882 2874
Wind_Speed
31 31 36 30 25 23 14 15 16 17 17 14 17 17 17 17 18 18 16 16 15 15 16 17 18 16 15 15 15 14 12 11 11 11 11 11 12 15 17 19 22 24 27 31
28 31 23 24 22 22 22 16 15 15 16 16 16 17 18 21 18 17 18 19 18 18 17 18 16 15 17 17 16 15 14 13 13 13 14 15 17 19 21 23 25 28 31 36
25 19 23 23 24 25 24 22 16 14 12 16 18 23 22 23 22 22 22 22 21 20 19 17 15 16 18 17 17 16 15 15 15 15 17 19 21 23 25 27 30 33 36 38
20 25 21 25 26 23 23 21 19 17 12 8 10 6 9 16 23 24 25 24 22 20 19 16 16 17 18 18 18 17 16 16 16 18 20 22 24 26 28 30 33 35 38 39
19 20 23 25 22 21 20 17 16 15 14 13 14 8 10 19 19 20 19 19 20 20 18 17 17 18 19 19 18 18 17 18 19 21 23 25 27 29 31 33 35 38 40 37
21 17 21 22 23 22 16 15 13 10 8 5 17 16 7 12 13 17 18 18 19 18 18 18 19 19 19 18 19 19 19 21 22 25 26 28 29 31 33 36 39 40 37 35
26 20 24 22 21 22 21 18 4 0 2 5 8 11 16 10 12 10 13 15 16 18 17 17 17 18 18 18 19 21 22 23 25 27 29 30 32 34 37 41 40 39 36 36
24 13 25 23 27 19 26 23 7 7 4 3 9 9 6 15 19 16 13 16 17 16 16 17 18 18 19 21 22 22 23 25 26 28 29 32 34 38 42 43 40 39 40 40
24 17 25 21 27 24 25 20 18 2 2 1 6 9 11 13 13 15 18 17 16 16 16 16 17 18 18 19 20 20 22 24 26 28 31 35 39 43 43 40 40 42 43 46
12 10 19 25 26 25 17 21 10 9 3 4 4 7 11 4 11 15 14 15 17 19 20 19 17 16 16 17 18 20 22 25 29 32 35 41 44 42 41 42 44 47 50 51
26 15 12 24 25 29 27 22 12 10 6 5 1 4 6 8 10 11 11 14 17 19 20 19 18 17 16 17 18 23 26 29 33 38 42 43 40 41 44 49 52 55 56 56
34 15 9 23 17 25 26 25 24 10 7 7 3 7 6 7 9 8 9 12 16 19 20 20 18 17 17 21 24 25 29 35 39 41 42 41 43 47 50 53 55 57 58 57
34 16 10 6 13 20 27 31 31 30 19 13 7 5 6 9 10 7 10 12 15 18 20 21 20 21 24 25 26 31 36 39 41 42 42 44 47 52 55 57 57 57 58 58
20 24 19 19 9 16 30 33 34 32 17 20 28 25 15 12 12 14 14 15 18 21 23 24 24 25 27 28 32 37 38 40 40 43 45 48 51 54 55 56 56 57 57 56
24 22 25 18 12 12 11 15 28 35 32 23 27 26 19 22 20 17 19 21 22 23 25 26 28 29 30 33 38 38 38 40 44 46 50 52 54 55 55 56 56 56 55 53
31 18 24 23 23 20 19 19 18 19 24 28 31 29 26 25 25 25 26 24 23 25 27 29 30 30 35 36 36 36 39 42 47 51 53 54 55 54 54 53 53 52 51 50
32 31 24 12 22 22 20 30 30 30 30 29 32 28 25 27 28 27 24 23 25 27 28 29 31 34 33 33 36 39 44 49 51 51 53 53 53 53 51 50 51 51 51 52
24 28 26 9 11 3 16 19 20 24 29 31 30 29 28 28 25 24 23 24 25 26 27 29 29 29 32 34 40 47 48 49 50 51 52 51 50 49 49 50 51 51 53 52
25 24 16 10 19 17 14 11 12 15 17 19 20 22 23 21 20 20 21 23 24 24 25 25 28 31 36 42 45 46 46 48 50 51 51 49 47 48 50 51 52 53 54 52
25 25 28 14 7 8 9 11 16 23 25 21 21 18 19 18 19 20 19 19 20 22 25 28 32 38 42 42 44 46 48 49 49 49 48 46 47 50 51 52 53 52 52 53
28 26 28 23 11 11 12 10 11 14 17 15 16 17 17 15 16 15 16 18 20 23 27 33 39 39 40 41 43 46 48 47 47 46 46 46 47 50 50 51 52 52 51 52
28 25 23 20 10 12 15 19 20 18 17 13 12 14 14 13 13 14 16 20 25 29 33 34 36 37 38 39 43 45 46 46 45 45 45 46 48 50 51 52 51 50 51 51
16 18 18 14 13 24 17 20 22 23 19 14 12 11 12 13 15 17 21 25 28 29 30 32 35 37 38 40 41 44 44 44 44 45 46 47 48 49 49 49 49 50 48 46
20 20 26 28 28 26 23 23 23 24 19 15 10 11 13 15 17 20 22 23 24 26 30 33 36 38 39 39 41 43 43 43 45 46 46 48 48 47 47 47 45 45 43 43
32 27 28 31 27 27 28 27 25 21 14 10 11 12 14 16 18 18 19 22 25 29 32 35 37 39 39 41 42 41 42 43 44 46 46 46 46 45 46 44 40 41 42 43
29 27 31 32 33 30 24 22 14 9 7 8 11 14 15 15 16 18 21 25 29 33 35 36 37 39 41 42 40 40 40 43 45 46 45 43 43 43 41 40 40 39 41 40
Wind_Direction
198 198 205 209 215 225 233 241 243 239 233 232 235 231 242 243 241 242 242 248 252 247 249 258 267 260 237 226 227 235 245 258 268 270 269 275 281 290 303 312 319 323 327 331
205 214 204 213 218 229 233 241 234 232 230 237 241 238 242 249 248 247 247 248 250 248 255 257 257 242 224 223 228 236 246 257 262 265 266 273 284 296 304 309 313 318 325 329
208 215 215 218 223 223 228 234 232 231 232 243 258 263 247 248 249 245 244 244 243 243 248 253 243 228 223 225 230 238 247 255 262 268 273 279 288 295 300 307 314 318 322 326
213 219 218 218 221 222 227 232 233 236 238 239 240 274 242 240 245 250 249 246 242 243 250 247 236 221 222 227 234 242 249 257 264 269 274 282 289 296 302 305 310 316 320 321
205 218 216 215 218 216 222 225 224 226 227 249 245 252 259 244 244 245 244 238 232 233 232 231 226 222 224 231 239 247 253 260 266 272 278 283 289 296 300 305 310 314 317 315
217 216 207 214 212 211 218 206 203 214 226 256 241 220 243 239 242 240 238 228 222 222 223 228 224 222 229 238 245 252 257 262 269 273 278 285 291 296 302 306 311 314 312 309
211 212 207 206 204 202 202 187 135 267 213 219 215 214 226 217 232 229 222 219 215 215 223 228 225 226 233 243 251 256 260 266 271 278 285 292 296 299 302 307 311 309 306 305
201 205 209 209 206 207 198 193 190 195 191 220 207 234 238 224 231 234 226 213 215 223 231 230 227 232 241 247 253 260 266 272 279 286 291 293 296 300 304 306 305 304 305 306
200 205 206 205 207 201 203 207 216 126 113 323 221 251 238 227 229 231 232 233 229 227 227 228 229 237 247 254 260 266 273 279 283 286 288 293 298 302 303 302 303 305 306 306
216 195 204 202 203 206 206 207 194 199 141 235 261 256 227 196 231 240 234 230 223 223 229 233 239 251 258 258 264 271 276 280 284 289 294 299 302 302 302 302 302 303 302 301
219 214 193 198 207 210 203 199 197 187 194 167 184 238 193 208 229 229 223 218 222 228 233 237 247 254 254 260 268 274 279 287 292 296 299 301 300 300 302 304 306 307 307 305
211 209 191 204 215 215 217 220 212 201 202 201 204 244 196 216 235 238 236 233 232 233 239 246 249 251 258 269 271 278 287 294 296 298 299 299 302 305 306 307 305 304 303 303
210 205 148 172 225 219 220 220 220 225 234 206 177 235 202 236 241 247 252 242 242 250 252 253 253 260 270 273 278 287 293 294 294 296 298 300 303 304 305 304 304 303 303 303
209 213 210 209 207 210 217 223 221 224 218 227 230 253 246 238 251 270 259 253 253 255 254 256 259 267 271 275 284 289 287 288 291 294 296 300 304 305 304 303 303 302 302 304
209 215 219 231 231 212 219 226 227 225 236 240 265 266 272 266 266 264 267 267 264 255 254 256 261 264 268 277 282 283 288 291 294 297 301 306 306 305 304 304 305 306 307 306
214 217 228 232 235 236 237 229 228 236 243 250 256 261 264 266 267 269 275 271 260 254 253 256 259 265 275 279 283 287 291 295 298 301 306 307 305 306 307 308 308 307 306 305
219 222 228 225 235 243 252 244 246 250 255 259 252 268 269 270 273 275 270 261 250 248 253 255 263 273 278 283 289 295 297 300 305 308 308 308 310 310 310 309 307 307 306 304
231 229 224 234 213 260 248 241 244 247 253 257 264 268 270 272 273 266 256 246 245 249 256 265 271 276 283 292 298 301 304 307 309 310 310 310 309 309 308 306 307 308 307 307
229 222 215 215 206 252 248 233 234 245 259 255 251 258 261 264 259 250 246 246 251 258 265 271 280 291 298 303 304 305 308 309 309 308 307 308 308 307 306 309 310 309 307 305
214 214 216 201 199 212 253 251 243 252 254 257 255 257 259 251 240 244 238 244 256 268 280 289 293 297 302 305 307 308 308 307 307 307 307 307 309 309 309 308 308 307 305 304
202 209 214 217 225 245 243 210 197 216 272 254 249 247 247 242 235 235 245 259 272 281 285 291 296 301 304 306 306 305 304 307 306 307 307 308 308 307 308 308 310 309 308 307
212 201 210 215 222 259 239 246 234 258 259 245 225 225 231 235 244 256 267 275 280 285 292 297 299 300 304 305 303 304 307 308 308 307 308 309 310 310 311 311 312 311 310 310
204 209 211 206 229 255 256 245 242 246 242 227 210 221 238 245 253 262 272 279 286 292 296 299 301 304 307 306 307 307 308 307 307 309 311 312 312 312 313 313 314 313 314 314
213 224 252 262 240 239 235 221 222 217 217 209 210 228 236 246 262 273 282 289 295 301 304 305 307 307 307 308 309 309 309 309 310 311 312 313 313 314 314 315 315 316 319 318
253 243 230 228 232 230 227 221 223 220 211 219 223 233 254 271 280 288 298 306 309 310 309 309 309 308 310 311 311 310 310 309 310 312 314 314 314 314 316 317 318 319 320 317
231 231 229 232 237 236 230 219 210 211 211 222 247 266 276 286 299 313 316 313 312 313 312 310 309 310 312 311 310 310 311 312 313 314 315 315 315 317 317 317 318 319 320 319